This demonstration page uses our WeatherBlox Daily Observations layout. Learn more.

Left ArrowRight Arrow

39.51506, -84.39828

Hourly Observations for February 9, 2018

Temp ( °F °C ) Dew Point ( °F °C ) Humidity (%) Winds ( mph kmh ) Pressure ( in mb ) Visibility ( mi km ) Precip ( " mm )
12:15 am 00:15 Clear 26 -3.4 19 -7.3 75 75 Calm 30.42 1030 10 16 0.00 0.00
12:35 am 00:35 Clear 26 -3.5 20 -6.8 78 78 Calm 30.42 1030 10 16 0.00 0.00
12:55 am 00:55 Clear 26 -3.3 20 -6.5 79 79 Calm 30.42 1030 10 16 0.00 0.00
1:15 am 01:15 Mostly Cloudy 26 -3.2 21 -6.2 80 80 Calm 30.42 1030 10 16 0.00 0.00
1:35 am 01:35 Mostly Cloudy 27 -2.6 22 -5.7 80 80 SE 3 6 30.42 1030 10 16 0.00 0.00
1:55 am 01:55 Clear 28 -2.5 22 -5.6 80 80 Calm 30.39 1029 10 16 0.00 0.00
2:15 am 02:15 Clear 28 -2.4 22 -5.4 80 80 SSE 3 6 30.39 1029 10 16 0.00 0.00
2:35 am 02:35 Clear 27 -2.6 22 -5.5 81 81 SSE 5 7 30.39 1029 10 16 0.00 0.00
2:55 am 02:55 Clear 28 -2.4 22 -5.8 78 78 SSE 5 7 30.39 1029 10 16 0.00 0.00
3:15 am 03:15 Clear 28 -2.4 22 -5.5 80 80 Calm 30.36 1028 10 16 0.00 0.00
3:35 am 03:35 Clear 28 -2.4 22 -5.3 81 81 SSE 3 6 30.36 1028 10 16 0.00 0.00
3:55 am 03:55 Partly Cloudy 28 -2.3 23 -5 82 82 Calm 30.36 1028 10 16 0.00 0.00
4:15 am 04:15 Cloudy 28 -2.1 23 -4.9 81 81 Calm 30.36 1028 10 16 0.00 0.00
4:35 am 04:35 Cloudy 29 -1.9 23 -4.9 80 80 Calm 30.33 1027 10 16 0.00 0.00
4:55 am 04:55 Cloudy 29 -1.7 23 -4.8 80 80 Calm 30.33 1027 10 16 0.00 0.00
5:15 am 05:15 Mostly Cloudy 29 -1.7 23 -4.9 79 79 Calm 30.33 1027 10 16 0.00 0.00
5:35 am 05:35 Cloudy 29 -1.5 24 -4.7 79 79 Calm 30.33 1027 10 16 0.00 0.00
5:55 am 05:55 Cloudy 29 -1.4 23 -4.9 77 77 SSE 6 9 30.33 1027 10 16 0.00 0.00
6:15 am 06:15 Cloudy 30 -1.3 23 -4.8 77 77 SSE 3 6 30.33 1027 10 16 0.00 0.00
6:35 am 06:35 Cloudy 30 -1.3 23 -4.8 77 77 Calm 30.33 1027 10 16 0.00 0.00
6:55 am 06:55 Mostly Cloudy 30 -1.2 24 -4.6 78 78 S 6 9 30.33 1027 10 16 0.00 0.00
7:15 am 07:15 Partly Cloudy 30 -1.2 24 -4.7 77 77 S 7 11 30.33 1027 10 16 0.00 0.00
7:35 am 07:35 Clear 30 -1.1 24 -4.7 77 77 S 7 11 30.33 1027 10 16 0.00 0.00
7:55 am 07:55 Sunny 30 -1.2 23 -4.8 77 77 S 8 13 30.33 1027 10 16 0.00 0.00
8:15 am 08:15 Sunny 30 -1.1 24 -4.7 77 77 S 6 9 30.33 1027 10 16 0.00 0.00
8:35 am 08:35 Cloudy 30 -0.9 24 -4.7 76 76 S 6 9 30.30 1026 10 16 0.00 0.00
8:55 am 08:55 Cloudy 31 -0.4 24 -4.7 73 73 S 7 11 30.30 1026 10 16 0.00 0.00
9:15 am 09:15 Cloudy 32 0 24 -4.7 71 71 S 8 13 30.30 1026 10 16 0.00 0.00
9:35 am 09:35 Sunny 32 0.2 24 -4.5 71 71 S 3 6 30.30 1026 10 16 0.00 0.00
9:55 am 09:55 Sunny 33 0.8 24 -4.4 69 69 S 8 13 30.30 1026 10 16 0.00 0.00
10:15 am 10:15 Partly Cloudy 34 1.3 25 -3.8 69 69 SSW 3 6 30.27 1025 10 16 0.00 0.00
10:35 am 10:35 Mostly Cloudy 36 2.2 25 -4 64 64 SSW 13 20 30.27 1025 10 16 0.00 0.00
10:55 am 10:55 Cloudy 37 2.6 26 -3.6 64 64 SW 8 13 30.27 1025 10 16 0.00 0.00
11:15 am 11:15 Cloudy 37 2.9 25 -3.7 62 62 SSW 9 15 30.27 1025 10 16 0.00 0.00
11:35 am 11:35 Cloudy 38 3.1 26 -3.3 63 63 SSW 12 19 30.27 1025 10 16 0.00 0.00
11:55 am 11:55 Cloudy 38 3.4 27 -3 63 63 SSW 13 20 30.24 1024 10 16 0.00 0.00
12:15 pm 12:15 Cloudy 39 3.7 27 -2.8 63 63 SSW 14 22 30.24 1024 10 16 0.00 0.00
12:35 pm 12:35 Cloudy 40 4.4 28 -2.3 62 62 S 8 13 30.24 1024 10 16 0.00 0.00
12:55 pm 12:55 Cloudy 41 5 28 -2.2 60 60 SSW 10 17 30.21 1023 10 16 0.00 0.00
1:15 pm 13:15 Sunny 42 5.5 29 -1.9 59 59 S 8 13 30.18 1022 10 16 0.00 0.00
1:35 pm 13:35 Sunny 43 6.3 29 -1.8 57 57 SSW 12 19 30.18 1022 10 16 0.00 0.00
1:55 pm 13:55 Sunny 44 6.8 29 -1.6 55 55 SSW 12 19 30.15 1021 10 16 0.00 0.00
2:15 pm 14:15 Sunny 45 7 30 -1.3 56 56 SW 15 24 30.15 1021 10 16 0.00 0.00
2:35 pm 14:35 Sunny 45 7 30 -1.1 57 57 SW 15 24 30.15 1021 10 16 0.00 0.00
2:55 pm 14:55 Sunny 45 7.4 31 -0.8 56 56 SW 13 20 30.12 1020 10 16 0.00 0.00
3:15 pm 15:15 Sunny 46 7.5 31 -0.4 58 58 SW 12 19 30.12 1020 10 16 0.00 0.00
3:35 pm 15:35 Sunny 46 7.8 31 -0.6 56 56 SW 14 22 30.12 1020 10 16 0.00 0.00
3:55 pm 15:55 Sunny 46 8 32 -0.2 57 57 SW 14 22 30.12 1020 10 16 0.00 0.00
4:15 pm 16:15 Sunny 46 7.8 33 0.3 59 59 SW 8 13 30.12 1020 10 16 0.00 0.00
4:35 pm 16:35 Sunny 46 7.5 33 0.3 61 61 SW 9 15 30.12 1020 10 16 0.00 0.00
4:55 pm 16:55 Sunny 45 7.2 33 0.7 64 64 SW 6 9 30.12 1020 10 16 0.00 0.00
5:15 pm 17:15 Sunny 45 7.4 32 0.1 60 60 Calm 30.12 1020 10 16 0.00 0.00
5:35 pm 17:35 Sunny 45 7.3 32 0 60 60 Calm 30.12 1020 10 16 0.00 0.00
5:55 pm 17:55 Sunny 43 6.1 32 0 65 65 Calm 30.12 1020 10 16 0.00 0.00
6:15 pm 18:15 Clear 41 5.1 32 -0.1 69 69 Calm 30.12 1020 10 16 0.00 0.00
6:35 pm 18:35 Clear 39 3.7 31 -0.3 75 75 Calm 30.15 1021 10 16 0.00 0.00
6:55 pm 18:55 Clear 38 3.5 31 -0.3 76 76 Calm 30.15 1021 10 16 0.00 0.00
7:15 pm 19:15 Clear 38 3.4 31 -0.3 77 77 Calm 30.15 1021 10 16 0.00 0.00
7:35 pm 19:35 Clear 37 2.7 31 -0.8 78 78 Calm 30.15 1021 10 16 0.00 0.00
7:55 pm 19:55 Clear 36 2.3 31 -0.7 81 81 Calm 30.15 1021 10 16 0.00 0.00
8:15 pm 20:15 Clear 36 2.1 31 -0.5 83 83 Calm 30.15 1021 10 16 0.00 0.00
8:35 pm 20:35 Clear 35 1.4 31 -0.7 86 86 Calm 30.15 1021 10 16 0.00 0.00
8:55 pm 20:55 Clear 34 1.3 30 -0.9 85 85 Calm 30.15 1021 10 16 0.00 0.00
9:15 pm 21:15 Clear 35 1.4 30 -0.9 85 85 Calm 30.15 1021 10 16 0.00 0.00
9:35 pm 21:35 Partly Cloudy 34 1.3 31 -0.7 87 87 Calm 30.15 1021 10 16 0.00 0.00
9:55 pm 21:55 Cloudy 35 1.4 31 -0.7 86 86 Calm 30.15 1021 10 16 0.00 0.00
10:15 pm 22:15 Cloudy 34 1.3 31 -0.5 88 88 Calm 30.15 1021 10 16 0.00 0.00
10:35 pm 22:35 Cloudy 35 1.7 31 -0.5 86 86 Calm 30.15 1021 10 16 0.00 0.00
10:55 pm 22:55 Cloudy 35 1.4 31 -0.4 88 88 Calm 30.15 1021 10 16 0.00 0.00
11:15 pm 23:15 Cloudy 35 1.7 31 -0.4 86 86 Calm 30.15 1021 10 16 0.00 0.00
11:35 pm 23:35 Cloudy 35 1.5 32 -0.2 89 89 Calm 30.15 1021 10 16 0.00 0.00
11:55 pm 23:55 Cloudy 35 1.7 32 0 89 89 Calm 30.15 1021 10 16 0.00 0.00

Powered by AerisWeather